Weather in Kodima

Ukraine / Odesa District     48˚05′35″N   29˚07′29″E
temp.,
°C
wind,
m/s
gust,
m/s
humid.,
%
clouds,
%
prec.,
mm/h
press.,
hPa
HPBL,
m
28 november, sat
sat2823:00+2˚wnw2272100 0.0 102129
02:00+1˚nnw2384100 0.0 102068
05:00+2˚nnw2391100 0.0 1019133
08:00+3˚ne1193100 0.0 101924
11:00+4˚w1183100 0.0 1019296
14:00+5˚wnw2380100 0.0 1018480
17:00+4˚nw3489100 0.1 1018338
20:00+3˚nw1287100 0.1 1019222
29 november, sun
sun2923:00+2˚wnw0084100 0.0 101940
02:00+2˚nnw2394100 0.0 1019222
05:00+1˚nne1195100 0.0 1019123
08:00+2˚ne1194100 0.1 1020123
11:00+2˚ese0185100 0.0 1021276
14:00+3˚e1277100 0.1 1020439
17:00+3˚ne1283100 0.0 1020309
20:00+2˚e128898 0.1 102268
30 november, mon
mon3023:00+1˚nnw119353 0.0 102222
02:00n239550 0.0 102277
05:00n249287 0.0 1022109
08:00n248593 0.0 1024187
11:00+2˚n3576100 0.0 1024477
14:00+3˚n4673100 0.0 1025703
17:00+2˚n4776100 0.0 1025602
20:00+2˚n4873100 0.0 1026599
1 december, tue
tue123:00n4874100 0.0 1027517
02:00−1˚n4880100 0.0 1027390
05:00−2˚n498263 0.0 1027366
08:00−2˚n498031 0.0 1028367
11:00+1˚nne57660 0.0 1028532
14:00+2˚nne476513 0.0 1027648
17:00ne387889 0.0 1027452
20:00−1˚ne378885 0.0 1027355
2 december, wed
wed223:00−1˚ne359489 0.2 1027253
02:00−1˚ne239692 0.6 1027178
05:00−1˚ne249695 0.3 1027177
08:00−1˚ne249793 0.6 1027172
11:00+1˚ene239493 0.1 1027265
14:00+1˚e229296 0.2 1026259
17:00+1˚ne2393100 0.0 1026184
20:00+1˚ne2388100 0.1 1027196